Location: ?????????
(54.7630°N, 39.4991°E)
Time: 17:47:51
(UTC+00:00)

USA 281 - Pass Details

Date: 14 April 2026
Orbit: 1079 x 1080 km, 106.0° (Epoch: 5 January)

Event Time Altitude Azimuth Distance (km) Brightness Sun altitude
Exits shadow 21:54:57 26° 127° (SE) 1,996 4.3 -25.2°
Maximum altitude 21:58:50 65° 53° (NE) 1,182 3.5 -25.1°
Drops below altitude 10° 22:05:20 10° 334° (NNW) 2,934 6.2 -24.9°
Sets 22:07:52 0° 332° (NNW) 3,893 6.9 -24.9°
